Location: Kellogg
(38.0159°N, 90.0546°W)
Time: 07:51:31
(UTC+00:00)

S-56A Canister/Altair - Pass Details

Date: 14 September 2024
Orbit: 636 x 2487 km, 38.9° (Epoch: 09 October)

Event Time Altitude Azimuth Distance (km) Brightness Sun altitude
Rises 06:32:32 0° 286° (WNW) 4,565 - -47.9°
Reaches altitude 10° 06:35:19 10° 280° (W) 3,813 - -47.8°
Maximum altitude 06:45:10 48° 211° (SSW) 2,522 - -47.2°
Drops below altitude 10° 06:58:27 10° 143° (SE) 5,052 - -46.3°
Sets 07:02:49 0° 138° (SE) 6,134 - -46.0°
